Вернуться в каталог

STARLINK-35928

АктивенСвязьVLEO
NORAD 66528·PAYLOAD·🇺🇸 United States

Запущен Nov 19, 2025 с Cape Canaveral Space Force Station

Loading…

Ближайшие Пролёты (ближайшие 24 часа)

TLE

СвежийSource: CelesTrak SupGP

Эпоха: Sep 15, 2026, 03:57 UTC

1 66528C 25265N   26258.16506944 -.00008693  00000+0 -31489-3 0  2588
2 66528  42.9999 287.7168 0001401 263.4784  76.8331 15.27581319    11

Отслеживайте STARLINK-35928 в реальном времени с AllMySat

Download on the App Store